www.pogodaiklimat.ru

Погода и климат >> Архив погоды >> Греция >> Триполис


ПОГОДА в Триполисе

  • Прогноз погоды в Триполисе
  • Монитор погоды в Триполисе

АРХИВ ПОГОДЫ в Триполисе

Время (UTC), дата Ветер
(напр.,м/с)
 
Видим.   Явления Облачность Т
(С)
Тd
(С)
f
(%)
Тe
(С)
Тes
(С)
Комфортность P
(гПа)
Po
(гПа)
Тmin
(С)
Tmax
(С)
R
(мм)
R24
(мм)
S
(см)
06 15.08 нст 1
{2}
н/о н/о +23.6 +14.9 58 +26 +26 жарко 1008.9 936.2 +16.0
09 15.08 ЮВ 5
{7}
н/о н/о +29.5 +10.8 31 +30 +30 жарко 1007.2 936.0
12 15.08 ЮВ 4
{8}
н/о н/о +30.9 +11.6 31 +31 +31 жарко 1005.5 934.6
15 15.08 С 6
{11}
н/о {осадки} н/о +28.8 +13.5 39 +30 +30 жарко 1006.7 935.3
18 15.08 ЮЗ 4
{9}
н/о {осадки} н/о +24.6 +17.0 63 +28 +28 душно 1008.9 936.4 +32.1 0.0
21 15.08 СВ 1
{5}
н/о н/о +20.5 +16.6 78 +25 +25 комфорт 1011.7 938.0
00 16.08 ЮЗ 1
{2}
н/о н/о +17.4 +15.4 88 +19 +19 1012.1 937.6
03 16.08 штиль 0
{2}
н/о н/о +15.4 +14.5 94 +15 +15 1012.7 937.7
06 16.08 штиль 0
{2}
7000 м дымка 1/1 600 м
[Cu hum]
+21.2 +15.3 69 +24 +29 комфорт 1012.4 938.8 +14.8 290
09 16.08 ЮВ 4
{6}
10 км 4/4 600 м
[Cu med, cong]
+28.0 +14.9 45 +31 +38 душно 1010.4 938.6
12 16.08 ЮВ 5
{8}
10 км 5/5 600 м
[Sc diur, vesp]
+30.2 +13.7 36 +32 +36 жарко 1008.8 937.5
15 16.08 ЮВ 6
{10}
н/о н/о +27.6 +14.3 44 +30 +30 жарко 1009.1 937.2
18 16.08 ЮЗ 4
{9}
10 км 5/5 600 м
[Sc diur, vesp]
+24.6 +14.8 54 +27 +27 жарко 1010.9 938.2 +31.0
21 16.08 ЮВ 2
{5}
н/о н/о +20.2 +15.6 75 +24 +24 комфорт 1013.3 939.4
00 17.08 В 2
{2}
н/о н/о +17.0 +14.6 86 +18 +18 1013.5 938.8
03 17.08 штиль 0
{2}
н/о н/о +15.4 +14.0 91 +15 +15 1014.2 939.1
06 17.08 штиль 0
{2}
н/о н/о +20.8 +14.8 69 +23 +23 комфорт 1013.5 939.7 +14.6
09 17.08 ЮВ 4
{7}
н/о н/о +26.5 +14.1 46 +29 +29 жарко 1012.0 939.7
12 17.08 ЮВ 5
{7}
н/о н/о +27.8 +12.6 39 +29 +29 жарко 1010.6 938.7
15 17.08 В 5
{9}
н/о {осадки} н/о +25.4 +15.7 55 +29 +29 душно 1011.2 938.7
18 17.08 ЮВ 3
{7}
н/о осадки н/о +21.5 +17.9 80 +26 +26 душно 1013.8 940.2 +29.5 0.0
21 17.08 ЮЗ 1
{6}
н/о н/о +20.5 +17.7 84 +26 +26 душно 1015.3 941.3
00 18.08 СВ 1
{3}
н/о {осадки} н/о +19.5 +17.4 88 +23 +23 комфорт 1015.6 941.3 0.0
03 18.08 штиль 0
{2}
н/о н/о +16.5 +15.8 96 +16 +16 1016.3 941.3
06 18.08 нст 1
{3}
н/о н/о +21.9 +13.2 58 +25 +25 комфорт 1015.9 942.2 +15.9 0.0
09 18.08 ЮВ 4
{8}
н/о н/о +24.5 +10.9 42 +26 +26 жарко 1015.3 942.3
12 18.08 СВ 4
{9}
н/о н/о +28.2 +6.7 26 +27 +27 жарко 1013.8 941.7
15 18.08 СВ 3
{10}
н/о н/о +26.4 +8.5 32 +26 +26 жарко 1013.9 941.4
18 18.08 нст 1
{6}
н/о н/о +22.3 +10.8 48 +24 +24 комфорт 1015.7 942.2 +28.8
21 18.08
{3}
н/о н/о +20.3 +10.5 53 1016.9 942.8
00 19.08 штиль 0
{3}
н/о н/о +14.7 +11.7 82 +14 +14 1018.0 942.4
03 19.08 СЗ 1
{3}
н/о н/о +14.1 +10.6 79 +15 +15 1018.2 942.4
06 19.08 С 4
{6}
10 км ясно +22.0 +7.7 40 +23 +26 комфорт 1016.4 942.7 +12.5 280
09 19.08 С 9
{12}
10 км 1/1 600 м
[Cu hum Ac trans]
+26.0 +7.6 31 +26 +28 жарко 1015.3 942.6
12 19.08 В 5
{12}
10 км ясно +28.4 +7.7 27 +28 +36 жарко 1014.6 942.6
15 19.08 СВ 5
{10}
н/о н/о +28.4 +7.9 28 +28 +28 жарко 1014.0 942.0
18 19.08 СЗ 3
{8}
10 км 1/1 600 м
[Cu hum]
+23.8 +10.5 43 +25 +25 комфорт 1016.5 943.2 +29.5
21 19.08 С 3
{6}
н/о н/о +20.4 +9.4 49 +22 +22 комфорт 1017.5 943.4
00 20.08 СВ 4
{8}
н/о н/о +20.7 +7.0 41 +22 +22 комфорт 1016.8 942.7
03 20.08
{6}
н/о н/о +19.4 +7.4 46 1017.7 943.3
06 20.08 С 7
{10}
н/о н/о +23.5 +7.9 37 +24 +24 комфорт 1017.2 943.8 +19.2
09 20.08 С 6
{12}
10 км ясно +27.0 +7.7 29 +27 +32 жарко 1016.2 943.8
12 20.08 СВ 6
{11}
10 км ясно +28.6 +6.6 25 +28 +35 жарко 1015.7 943.6
15 20.08 СВ 4
{10}
н/о н/о +28.3 +7.9 28 +28 +28 жарко 1015.4 943.3
18 20.08 СВ 4
{9}
10 км ясно +23.2 +10.7 45 +25 +25 комфорт 1017.5 944.1 +29.5
21 20.08 С 5
{9}
н/о н/о +19.9 +7.2 44 +21 +21 комфорт 1019.2 944.8
00 21.08 С 5
{8}
н/о н/о +19.8 +5.8 40 +20 +20 1018.0 943.7
03 21.08
{8}
н/о н/о +20.0 +8.1 46 1017.2 943.0
06 21.08 СВ 4
{7}
10 км ясно +23.8 +7.7 36 +24 +27 комфорт 1016.7 943.5 +19.1 284
09 21.08 СЗ 4
{9}
10 км ясно +27.2 +8.0 30 +27 +38 жарко 1016.0 943.5
12 21.08 С 3
{8}
10 км 1/1 600 м
[Cu hum]
+29.6 +7.8 25 +29 +40 жарко 1014.5 942.7
15 21.08 В 4
{10}
н/о н/о +29.4 +8.7 27 +29 +29 жарко 1013.6 941.8
18 21.08 СВ 4
{9}
10 км ясно +24.2 +10.7 43 +25 +25 комфорт 1016.1 942.9 +30.8
21 21.08 ЮВ 1
{5}
н/о н/о +19.8 +10.9 56 +22 +22 комфорт 1018.2 943.8
00 22.08 штиль 0
{3}
н/о н/о +16.2 +10.6 69 +16 +16 1018.8 943.6
03 22.08 СВ 4
{5}
н/о н/о +21.2 +12.2 56 +23 +23 комфорт 1017.1 943.2

 

Местоположение метеостанции Триполис (Греция): широта 37.53 долгота 22.40 высота над уровнем моря 652 м.

В архиве по умолчанию представлена погода в Триполисе за последнюю неделю. Архивные данные за месяц целиком и за предыдущие месяцы, начиная с января 2011 года, Вы можете получить, выбрав интересующий диапазон дат из раскрывающегося списка и нажав кнопку "Ввод!".


*Определитесь, кто Вы:
робот инопланетянин человек

Внимание! Время в таблицах - всемирное. Для получения местного времени необходимо прибавить поправку, которая равна 2 ч.

Смотрите также архив погоды в соседних городах и на ближайших метеорологических станциях:

Погода в Астросе (Греция) (31 км)
Погода в Аргосе (Греция) (34 км)
Погода в Каламате (Греция) (61 км)
Погода в Мефони (Греция) (100 км)
Погода в Андравиде (Греция) (108 км)
Погода в Элефисисе (Греция) (118 км)
Погода в Афинах (Греция) (124 км)
Погода в Татое (Греция) (137 км)
Погода в Элефтериос Венизелос (Греция) (141 км)
Погода на Китире (Греция) (150 км)

Пояснения к столбцам:

Ветер - указаны скорость ветра в м/с - средняя за 10 мин, порывы в срок и между сроками (в фигурных скобках) и направление, откуда дует ветер: С - северный, СВ - северо-восточный, В - восточный, ЮВ - юго-восточный, Ю - южный, ЮЗ - юго-западный, З - западный, СЗ - северо-западный.
Видимость - горизонтальная дальность видимости в метрах или километрах. При видимости от 1 до 10 км при отсутствии осадков обычно наблюдается дымка, при ухудшении видимости до 1 км и менее - туман. В сухую погоду видимость может ухудшаться дымом, пылью или мглою.
Явления - указаны атмосферные явления, наблюдавшиеся в срок или в последний час перед сроком; фигурными скобками обозначены явления, наблюдавшиеся между сроками (за 1-3 часа до срока); квадратными скобками обозначены град или гололедные отложения с указанием их диаметра в мм.
Облачность - указаны через наклонную черту общая и нижняя облачность в баллах и высота нижней границы облаков в метрах; квадратными скобками обозначены формы облаков: Ci - перистые, Cs - перисто-слоистые, Cc - перисто-кучевые, Ac - высококучевые, As - высокослоистые, Sc - слоисто-кучевые, Ns - слоисто-дождевые, Cu - кучевые, Cb - кучево-дождевые. Подробнее классификацию облаков см. в Атласе облаков (PDF).
T - Температура воздуха - температура, измеренная на высоте 2 м над землей.
Td - Температура точки росы - температура, при понижении до которой содержащийся в воздухе водяной пар достигнет насыщения.
f - Относительная влажность воздуха - влажноcть воздуха, измеренная на высоте 2 м над землей.
Te - Эффективная температура - температура, которую ощущает одетый по сезону человек в тени. Характеристика душности погоды. При расчете учитывается влияние влажности воздуха и скорости ветра на теплоощущения человека.
Tes - Эффективная температура на солнце - температура, которую ощущает человек, с поправкой на солнечный нагрев. Характеристика знойности погоды. Зависит от высоты солнца над горизонтом, облачности и скорости ветра. Ночью, в пасмурную погоду, а также при ветре 12 м/с и более поправка равна нулю.
P - Атмосферное давление - приведенное к уровню моря атмосферное давление.
Po - Атмосферное давление - измеренное на уровне метеостанции атмосферное давление.
Tmin - Минимальная температура - минимум температуры воздуха на высоте 2 м над землей.
Tmax - Максимальная температура - максимум температуры воздуха на высоте 2 м над землей.
R - Количество осадков - Количество выпавших осадков за период времени, мм. При наведении курсора мыши на число - период времени, за который выпало указанное количество осадков.
R24 - Количество осадков - Количество выпавших осадков за 24 часа, мм.
S - Снежный покров - Высота снежного покрова, см. При наведении курсора мыши на число - состояние снежного покрова и степень покрытия местности в баллах.